Location: Newark
(46.7636°N, 1.8358°W)
Time: 14:46:53
(UTC+00:00)

Vanguard 1 Rocket - Pass Details

Date: 21 October 2019
Orbit: 651 x 4226 km, 34.3° (Epoch: 21 November)

Event Time Altitude Azimuth Distance (km) Brightness Sun altitude
Rises 14:17:29 0° 270° (W) 6,752 12.4 24.0°
Reaches altitude 10° 14:21:29 10° 266° (W) 6,115 12.4 23.5°
Maximum altitude 14:41:57 53° 198° (SSW) 4,702 12.0 21.1°
Drops below altitude 10° 15:06:03 10° 131° (SE) 7,028 11.9 18.1°
Sets 15:11:09 0° 126° (SE) 7,762 12.0 17.4°
